START_TIME,STEP,MOV.,A39,t_acc.,A33,t_acc.,P32,t_acc.,P31,t_acc.
1981-08-28 09:00:23.420 ,4,0,0.,0.8,0.,0.8,0.,0.8,5.,0.8
1981-08-28 09:00:24.220 ,4,0,0.,0.8,0.,0.8,0.,0.8,1.,0.8
1981-08-28 09:00:25.020 ,4,0,0.,0.8,0.,0.8,0.,0.8,2.,0.8
1981-08-28 09:00:25.820 ,4,0,0.,0.8,0.,0.8,0.,0.8,5.,0.8
1981-08-28 09:00:26.620 ,4,0,0.,0.8,0.,0.8,0.,0.8,4.,0.8
1981-08-28 09:00:27.420 ,4,0,0.,0.8,0.,0.8,0.,0.8,3.,0.8
1981-08-28 09:00:28.220 ,4,0,0.,0.8,0.,0.8,0.,0.8,2.,0.8
1981-08-28 09:00:29.020 ,4,0,0.,0.8,0.,0.8,0.,0.8,3.,0.8
1981-08-28 09:00:29.820 ,4,0,0.,0.8,0.,0.8,0.,0.8,5.,0.8
1981-08-28 09:00:30.620 ,4,0,0.,0.8,0.,0.8,0.,0.8,8.,0.8
1981-08-28 09:00:31.420 ,4,0,0.,0.8,0.,0.8,0.,0.8,2.,0.8
1981-08-28 09:00:32.220 ,4,0,0.,0.8,0.,0.8,0.,0.8,3.,0.8
1981-08-28 09:00:33.020 ,4,0,0.,0.8,0.,0.8,0.,0.8,3.,0.8
1981-08-28 09:00:33.820 ,4,0,0.,0.8,0.,0.8,0.,0.8,2.,0.8
1981-08-28 09:00:34.620 ,4,0,0.,0.8,0.,0.8,0.,0.8,2.,0.8
1981-08-28 09:00:35.420 ,4,0,0.,0.8,0.,0.8,0.,0.8,1.,0.8
1981-08-28 09:00:36.220 ,4,0,0.,0.8,0.,0.8,0.,0.8,3.,0.8
1981-08-28 09:00:37.020 ,4,0,0.,0.8,0.,0.8,0.,0.8,1.,0.8
1981-08-28 09:00:37.820 ,4,0,0.,0.8,0.,0.8,0.,0.8,4.,0.8
1981-08-28 09:00:38.620 ,4,0,0.,0.8,0.,0.8,0.,0.8,1.,0.8
1981-08-28 09:00:39.420 ,4,0,0.,0.8,0.,0.8,0.,0.8,4.,0.8
1981-08-28 09:00:40.220 ,4,0,0.,0.8,0.,0.8,0.,0.8,4.,0.8
1981-08-28 09:00:41.020 ,4,0,0.,0.8,0.,0.8,0.,0.8,6.,0.8
1981-08-28 09:00:41.820 ,4,0,0.,0.8,0.,0.8,0.,0.8,1.,0.8
1981-08-28 09:00:42.620 ,4,0,0.,0.8,0.,0.8,0.,0.8,2.,0.8
1981-08-28 09:00:43.420 ,4,0,0.,0.8,0.,0.8,0.,0.8,4.,0.8
1981-08-28 09:00:44.220 ,4,0,0.,0.8,0.,0.8,0.,0.8,4.,0.8
1981-08-28 09:00:45.020 ,4,0,0.,0.8,0.,0.8,0.,0.8,1.,0.8
1981-08-28 09:00:45.820 ,4,0,0.,0.8,0.,0.8,0.,0.8,2.,0.8
1981-08-28 09:00:46.620 ,4,0,0.,0.8,0.,0.8,0.,0.8,5.,0.8
1981-08-28 09:00:47.420 ,3,0,0.,0.8,0.,0.8,0.,0.8,2.,0.8
1981-08-28 09:00:48.220 ,3,0,0.,0.8,0.,0.8,0.,0.8,3.,0.8
1981-08-28 09:00:49.020 ,3,0,0.,0.8,0.,0.8,0.,0.8,2.,0.8
1981-08-28 09:00:49.820 ,3,0,0.,0.8,0.,0.8,0.,0.8,0.,0.8
1981-08-28 09:00:50.620 ,3,0,0.,0.8,0.,0.8,0.,0.8,2.,0.8
1981-08-28 09:00:51.420 ,3,0,0.,0.8,0.,0.8,0.,0.8,5.,0.8
1981-08-28 09:00:52.220 ,3,0,0.,0.8,0.,0.8,0.,0.8,3.,0.8
1981-08-28 09:00:53.020 ,3,0,0.,0.8,0.,0.8,0.,0.8,3.,0.8
1981-08-28 09:00:53.820 ,3,0,0.,0.8,0.,0.8,0.,0.8,8.,0.8
1981-08-28 09:00:54.620 ,3,0,0.,0.8,0.,0.8,0.,0.8,2.,0.8
1981-08-28 09:00:55.420 ,3,0,0.,0.8,0.,0.8,0.,0.8,3.,0.8
1981-08-28 09:00:56.220 ,3,0,0.,0.8,0.,0.8,0.,0.8,3.,0.8
1981-08-28 09:00:57.020 ,3,0,0.,0.8,0.,0.8,0.,0.8,2.,0.8
1981-08-28 09:00:57.820 ,3,0,0.,0.8,0.,0.8,0.,0.8,3.,0.8
1981-08-28 09:00:58.620 ,3,0,0.,0.8,0.,0.8,0.,0.8,1.,0.8
1981-08-28 09:00:59.420 ,3,0,0.,0.8,0.,0.8,0.,0.8,5.,0.8
1981-08-28 09:01:00.220 ,3,0,0.,0.8,0.,0.8,0.,0.8,6.,0.8
1981-08-28 09:01:01.020 ,3,0,0.,0.8,0.,0.8,0.,0.8,4.,0.8
1981-08-28 09:01:01.820 ,3,0,0.,0.8,0.,0.8,0.,0.8,5.,0.8
1981-08-28 09:01:02.620 ,3,0,0.,0.8,0.,0.8,0.,0.8,2.,0.8
1981-08-28 09:01:03.420 ,3,0,0.,0.8,0.,0.8,0.,0.8,5.,0.8
1981-08-28 09:01:04.220 ,3,0,0.,0.8,0.,0.8,0.,0.8,0.,0.8
1981-08-28 09:01:05.020 ,3,0,0.,0.8,0.,0.8,0.,0.8,5.,0.8
1981-08-28 09:01:05.820 ,3,0,0.,0.8,0.,0.8,0.,0.8,7.,0.8
1981-08-28 09:01:06.620 ,3,0,0.,0.8,0.,0.8,0.,0.8,6.,0.8
1981-08-28 09:01:07.420 ,3,0,0.,0.8,0.,0.8,0.,0.8,5.,0.8
1981-08-28 09:01:08.220 ,3,0,0.,0.8,0.,0.8,0.,0.8,3.,0.8
1981-08-28 09:01:09.020 ,3,0,0.,0.8,0.,0.8,0.,0.8,4.,0.8
1981-08-28 09:01:09.820 ,3,0,0.,0.8,0.,0.8,0.,0.8,3.,0.8
1981-08-28 09:01:10.620 ,3,0,0.,0.8,0.,0.8,0.,0.8,8.,0.8
1981-08-28 09:01:11.420 ,2,0,0.,0.8,0.,0.8,0.,0.8,2.,0.8
1981-08-28 09:01:12.220 ,2,0,0.,0.8,0.,0.8,0.,0.8,0.,0.8
1981-08-28 09:01:13.020 ,2,0,0.,0.8,0.,0.8,0.,0.8,2.,0.8
1981-08-28 09:01:13.820 ,2,0,0.,0.8,0.,0.8,0.,0.8,2.,0.8
1981-08-28 09:01:14.620 ,2,0,0.,0.8,0.,0.8,0.,0.8,2.,0.8
1981-08-28 09:01:15.420 ,2,0,0.,0.8,0.,0.8,0.,0.8,2.,0.8
1981-08-28 09:01:16.220 ,2,0,0.,0.8,0.,0.8,0.,0.8,3.,0.8
1981-08-28 09:01:17.020 ,2,0,0.,0.8,0.,0.8,0.,0.8,2.,0.8
1981-08-28 09:01:17.820 ,2,0,0.,0.8,0.,0.8,0.,0.8,11.,0.8
1981-08-28 09:01:18.620 ,2,0,0.,0.8,0.,0.8,0.,0.8,5.,0.8
1981-08-28 09:01:19.420 ,2,0,0.,0.8,0.,0.8,0.,0.8,3.,0.8
1981-08-28 09:01:20.220 ,2,0,0.,0.8,0.,0.8,0.,0.8,0.,0.8
1981-08-28 09:01:21.020 ,2,0,0.,0.8,0.,0.8,0.,0.8,2.,0.8
1981-08-28 09:01:21.820 ,2,0,0.,0.8,0.,0.8,0.,0.8,3.,0.8
1981-08-28 09:01:22.620 ,2,0,0.,0.8,0.,0.8,0.,0.8,4.,0.8
1981-08-28 09:01:23.420 ,2,0,0.,0.8,0.,0.8,0.,0.8,2.,0.8
1981-08-28 09:01:24.220 ,2,0,0.,0.8,0.,0.8,0.,0.8,2.,0.8
1981-08-28 09:01:25.020 ,2,0,0.,0.8,0.,0.8,0.,0.8,4.,0.8
1981-08-28 09:01:25.820 ,2,0,0.,0.8,0.,0.8,0.,0.8,2.,0.8
1981-08-28 09:01:26.620 ,2,0,0.,0.8,0.,0.8,0.,0.8,6.,0.8
1981-08-28 09:01:27.420 ,2,0,0.,0.8,0.,0.8,0.,0.8,9.,0.8
1981-08-28 09:01:28.220 ,2,0,0.,0.8,0.,0.8,0.,0.8,5.,0.8
1981-08-28 09:01:29.020 ,2,0,0.,0.8,0.,0.8,0.,0.8,2.,0.8
1981-08-28 09:01:29.820 ,2,0,0.,0.8,0.,0.8,0.,0.8,3.,0.8
1981-08-28 09:01:30.620 ,2,0,0.,0.8,0.,0.8,0.,0.8,9.,0.8
1981-08-28 09:01:31.420 ,2,0,0.,0.8,0.,0.8,0.,0.8,1.,0.8
1981-08-28 09:01:32.220 ,2,0,0.,0.8,0.,0.8,0.,0.8,1.,0.8
1981-08-28 09:01:33.020 ,2,0,0.,0.8,0.,0.8,0.,0.8,5.,0.8
1981-08-28 09:01:33.820 ,2,0,0.,0.8,0.,0.8,0.,0.8,4.,0.8
1981-08-28 09:01:34.620 ,2,0,0.,0.8,0.,0.8,0.,0.8,4.,0.8
1981-08-28 09:01:35.420 ,1,0,0.,0.8,0.,0.8,0.,0.8,5.,0.8
1981-08-28 09:01:36.220 ,1,0,0.,0.8,0.,0.8,0.,0.8,2.,0.8
1981-08-28 09:01:37.020 ,1,0,0.,0.8,0.,0.8,0.,0.8,7.,0.8
1981-08-28 09:01:37.820 ,1,0,0.,0.8,0.,0.8,0.,0.8,3.,0.8
1981-08-28 09:01:38.620 ,1,0,0.,0.8,0.,0.8,0.,0.8,4.,0.8
1981-08-28 09:01:39.420 ,1,0,0.,0.8,0.,0.8,0.,0.8,3.,0.8
1981-08-28 09:01:40.220 ,1,0,0.,0.8,0.,0.8,0.,0.8,2.,0.8
1981-08-28 09:01:41.020 ,1,0,0.,0.8,0.,0.8,0.,0.8,5.,0.8
1981-08-28 09:01:41.820 ,1,0,0.,0.8,0.,0.8,0.,0.8,6.,0.8
1981-08-28 09:01:42.620 ,1,0,0.,0.8,0.,0.8,0.,0.8,2.,0.8
1981-08-28 09:01:43.420 ,1,0,0.,0.8,0.,0.8,0.,0.8,1.,0.8
1981-08-28 09:01:44.220 ,1,0,0.,0.8,0.,0.8,0.,0.8,5.,0.8
1981-08-28 09:01:45.020 ,1,0,0.,0.8,0.,0.8,0.,0.8,3.,0.8
1981-08-28 09:01:45.820 ,1,0,0.,0.8,0.,0.8,0.,0.8,2.,0.8
1981-08-28 09:01:46.620 ,1,0,0.,0.8,0.,0.8,0.,0.8,2.,0.8
1981-08-28 09:01:47.420 ,1,0,0.,0.8,0.,0.8,0.,0.8,1.,0.8
1981-08-28 09:01:48.220 ,1,0,0.,0.8,0.,0.8,0.,0.8,1.,0.8
1981-08-28 09:01:49.020 ,1,0,0.,0.8,0.,0.8,0.,0.8,3.,0.8
1981-08-28 09:01:49.820 ,1,0,0.,0.8,0.,0.8,0.,0.8,5.,0.8
1981-08-28 09:01:50.620 ,1,0,0.,0.8,0.,0.8,0.,0.8,2.,0.8
1981-08-28 09:01:51.420 ,1,0,0.,0.8,0.,0.8,0.,0.8,2.,0.8
1981-08-28 09:01:52.220 ,1,0,0.,0.8,0.,0.8,0.,0.8,2.,0.8
1981-08-28 09:01:53.020 ,1,0,0.,0.8,0.,0.8,0.,0.8,1.,0.8
1981-08-28 09:01:53.820 ,1,0,0.,0.8,0.,0.8,0.,0.8,0.,0.8
1981-08-28 09:01:54.620 ,1,0,0.,0.8,0.,0.8,0.,0.8,3.,0.8
1981-08-28 09:01:55.420 ,1,0,0.,0.8,0.,0.8,0.,0.8,4.,0.8
1981-08-28 09:01:56.220 ,1,0,0.,0.8,0.,0.8,0.,0.8,3.,0.8
1981-08-28 09:01:57.020 ,1,0,0.,0.8,0.,0.8,0.,0.8,5.,0.8
1981-08-28 09:01:57.820 ,1,0,0.,0.8,0.,0.8,0.,0.8,4.,0.8
1981-08-28 09:01:58.620 ,1,0,0.,0.8,0.,0.8,0.,0.8,3.,0.8
1981-08-28 09:01:59.420 ,0,0,0.,0.8,0.,0.8,0.,0.8,2.,0.8
1981-08-28 09:02:00.220 ,0,0,0.,0.8,0.,0.8,0.,0.8,5.,0.8
1981-08-28 09:02:01.020 ,0,0,0.,0.8,0.,0.8,0.,0.8,3.,0.8
1981-08-28 09:02:01.820 ,0,0,0.,0.8,0.,0.8,0.,0.8,5.,0.8
1981-08-28 09:02:02.620 ,0,0,0.,0.8,0.,0.8,0.,0.8,8.,0.8
1981-08-28 09:02:03.420 ,0,0,0.,0.8,0.,0.8,0.,0.8,2.,0.8
1981-08-28 09:02:04.220 ,0,0,0.,0.8,0.,0.8,0.,0.8,3.,0.8
1981-08-28 09:02:05.020 ,0,0,0.,0.8,0.,0.8,0.,0.8,1.,0.8
1981-08-28 09:02:05.820 ,0,0,0.,0.8,0.,0.8,0.,0.8,5.,0.8
1981-08-28 09:02:06.620 ,0,0,0.,0.8,0.,0.8,0.,0.8,4.,0.8
1981-08-28 09:02:07.420 ,0,0,0.,0.8,0.,0.8,0.,0.8,3.,0.8
1981-08-28 09:02:08.220 ,0,0,0.,0.8,0.,0.8,0.,0.8,1.,0.8
1981-08-28 09:02:09.020 ,0,0,0.,0.8,0.,0.8,0.,0.8,2.,0.8
1981-08-28 09:02:09.820 ,0,0,0.,0.8,0.,0.8,0.,0.8,4.,0.8
1981-08-28 09:02:10.620 ,0,0,0.,0.8,0.,0.8,0.,0.8,4.,0.8
1981-08-28 09:02:11.420 ,0,0,0.,0.8,0.,0.8,0.,0.8,1.,0.8
1981-08-28 09:02:12.220 ,0,0,0.,0.8,0.,0.8,0.,0.8,4.,0.8
1981-08-28 09:02:13.020 ,0,0,0.,0.8,0.,0.8,0.,0.8,3.,0.8
1981-08-28 09:02:13.820 ,0,0,0.,0.8,0.,0.8,0.,0.8,4.,0.8
1981-08-28 09:02:14.620 ,0,0,0.,0.8,0.,0.8,0.,0.8,4.,0.8
1981-08-28 09:02:15.420 ,0,0,0.,0.8,0.,0.8,0.,0.8,1.,0.8
1981-08-28 09:02:16.220 ,0,0,0.,0.8,0.,0.8,0.,0.8,4.,0.8
1981-08-28 09:02:17.020 ,0,0,0.,0.8,0.,0.8,0.,0.8,6.,0.8
1981-08-28 09:02:17.820 ,0,0,0.,0.8,0.,0.8,0.,0.8,3.,0.8
1981-08-28 09:02:18.620 ,0,0,0.,0.8,0.,0.8,0.,0.8,3.,0.8
1981-08-28 09:02:19.420 ,0,0,0.,0.8,0.,0.8,0.,0.8,2.,0.8
1981-08-28 09:02:20.220 ,0,0,0.,0.8,0.,0.8,0.,0.8,9.,0.8
1981-08-28 09:02:21.020 ,0,0,0.,0.8,0.,0.8,0.,0.8,5.,0.8
1981-08-28 09:02:21.820 ,0,0,0.,0.8,0.,0.8,0.,0.8,7.,0.8
1981-08-28 09:02:22.620 ,0,0,0.,0.8,0.,0.8,0.,0.8,3.,0.8
1981-08-28 09:02:23.420 ,0,0,0.,0.8,0.,0.8,0.,0.8,1.,0.8
1981-08-28 09:02:24.220 ,0,0,0.,0.8,0.,0.8,0.,0.8,5.,0.8
1981-08-28 09:02:25.020 ,0,0,0.,0.8,0.,0.8,0.,0.8,3.,0.8
1981-08-28 09:02:25.820 ,0,0,0.,0.8,0.,0.8,0.,0.8,3.,0.8
1981-08-28 09:02:26.620 ,0,0,0.,0.8,0.,0.8,0.,0.8,6.,0.8
1981-08-28 09:02:27.420 ,0,0,0.,0.8,0.,0.8,0.,0.8,2.,0.8
1981-08-28 09:02:28.220 ,0,0,0.,0.8,0.,0.8,0.,0.8,5.,0.8
1981-08-28 09:02:29.020 ,0,0,0.,0.8,0.,0.8,0.,0.8,5.,0.8
1981-08-28 09:02:29.820 ,0,0,0.,0.8,0.,0.8,0.,0.8,2.,0.8
1981-08-28 09:02:30.620 ,0,0,0.,0.8,0.,0.8,0.,0.8,5.,0.8
1981-08-28 09:02:31.420 ,0,0,0.,0.8,0.,0.8,0.,0.8,3.,0.8
1981-08-28 09:02:32.220 ,0,0,0.,0.8,0.,0.8,0.,0.8,3.,0.8
1981-08-28 09:02:33.020 ,0,0,0.,0.8,0.,0.8,0.,0.8,3.,0.8
1981-08-28 09:02:33.820 ,0,0,0.,0.8,0.,0.8,0.,0.8,5.,0.8
1981-08-28 09:02:34.620 ,0,0,0.,0.8,0.,0.8,0.,0.8,2.,0.8
1981-08-28 09:02:35.420 ,0,0,0.,0.8,0.,0.8,0.,0.8,3.,0.8
1981-08-28 09:02:36.220 ,0,0,0.,0.8,0.,0.8,0.,0.8,5.,0.8
1981-08-28 09:02:37.020 ,0,0,0.,0.8,0.,0.8,0.,0.8,2.,0.8
1981-08-28 09:02:37.820 ,0,0,0.,0.8,0.,0.8,0.,0.8,4.,0.8
1981-08-28 09:02:38.620 ,0,0,0.,0.8,0.,0.8,0.,0.8,3.,0.8
1981-08-28 09:02:39.420 ,0,0,0.,0.8,0.,0.8,0.,0.8,3.,0.8
1981-08-28 09:02:40.220 ,0,0,0.,0.8,0.,0.8,0.,0.8,5.,0.8
1981-08-28 09:02:41.020 ,0,0,0.,0.8,0.,0.8,0.,0.8,2.,0.8
1981-08-28 09:02:41.820 ,0,0,0.,0.8,0.,0.8,0.,0.8,4.,0.8
1981-08-28 09:02:42.620 ,0,0,0.,0.8,0.,0.8,0.,0.8,8.,0.8
1981-08-28 09:02:43.420 ,0,0,0.,0.8,0.,0.8,0.,0.8,2.,0.8
1981-08-28 09:02:44.220 ,0,0,0.,0.8,0.,0.8,0.,0.8,2.,0.8
1981-08-28 09:02:45.020 ,0,0,0.,0.8,0.,0.8,0.,0.8,4.,0.8
1981-08-28 09:02:45.820 ,0,0,0.,0.8,0.,0.8,0.,0.8,5.,0.8
1981-08-28 09:02:46.620 ,0,0,0.,0.8,0.,0.8,0.,0.8,2.,0.8
1981-08-28 09:02:47.420 ,1,0,0.,0.8,0.,0.8,0.,0.8,1.,0.8
1981-08-28 09:02:48.220 ,1,0,0.,0.8,0.,0.8,0.,0.8,1.,0.8
1981-08-28 09:02:49.020 ,1,0,0.,0.8,0.,0.8,0.,0.8,3.,0.8
1981-08-28 09:02:49.820 ,1,0,0.,0.8,0.,0.8,0.,0.8,6.,0.8
1981-08-28 09:02:50.620 ,1,0,0.,0.8,0.,0.8,0.,0.8,1.,0.8
1981-08-28 09:02:51.420 ,1,0,0.,0.8,0.,0.8,0.,0.8,3.,0.8
1981-08-28 09:02:52.220 ,1,0,0.,0.8,0.,0.8,0.,0.8,3.,0.8
1981-08-28 09:02:53.020 ,1,0,0.,0.8,0.,0.8,0.,0.8,2.,0.8
1981-08-28 09:02:53.820 ,1,0,0.,0.8,0.,0.8,0.,0.8,9.,0.8
1981-08-28 09:02:54.620 ,1,0,0.,0.8,0.,0.8,0.,0.8,1.,0.8
1981-08-28 09:02:55.420 ,1,0,0.,0.8,0.,0.8,0.,0.8,5.,0.8
1981-08-28 09:02:56.220 ,1,0,0.,0.8,0.,0.8,0.,0.8,7.,0.8
1981-08-28 09:02:57.020 ,1,0,0.,0.8,0.,0.8,0.,0.8,3.,0.8
1981-08-28 09:02:57.820 ,1,0,0.,0.8,0.,0.8,0.,0.8,3.,0.8
1981-08-28 09:02:58.620 ,1,0,0.,0.8,0.,0.8,0.,0.8,4.,0.8
1981-08-28 09:02:59.420 ,1,0,0.,0.8,0.,0.8,0.,0.8,1.,0.8
1981-08-28 09:03:00.220 ,1,0,0.,0.8,0.,0.8,0.,0.8,4.,0.8
1981-08-28 09:03:01.020 ,1,0,0.,0.8,0.,0.8,0.,0.8,1.,0.8
1981-08-28 09:03:01.820 ,1,0,0.,0.8,0.,0.8,0.,0.8,3.,0.8
1981-08-28 09:03:02.620 ,1,0,0.,0.8,0.,0.8,0.,0.8,1.,0.8
1981-08-28 09:03:03.420 ,1,0,0.,0.8,0.,0.8,0.,0.8,1.,0.8
1981-08-28 09:03:04.220 ,1,0,0.,0.8,0.,0.8,0.,0.8,3.,0.8
1981-08-28 09:03:05.020 ,1,0,0.,0.8,0.,0.8,0.,0.8,2.,0.8
1981-08-28 09:03:05.820 ,1,0,0.,0.8,0.,0.8,0.,0.8,4.,0.8
1981-08-28 09:03:06.620 ,1,0,0.,0.8,0.,0.8,0.,0.8,3.,0.8
1981-08-28 09:03:07.420 ,1,0,0.,0.8,0.,0.8,0.,0.8,4.,0.8
1981-08-28 09:03:08.220 ,1,0,0.,0.8,0.,0.8,0.,0.8,3.,0.8
1981-08-28 09:03:09.020 ,1,0,0.,0.8,0.,0.8,0.,0.8,6.,0.8
1981-08-28 09:03:09.820 ,1,0,0.,0.8,0.,0.8,0.,0.8,2.,0.8
1981-08-28 09:03:10.620 ,1,0,0.,0.8,0.,0.8,0.,0.8,1.,0.8
1981-08-28 09:03:11.420 ,2,0,0.,0.8,0.,0.8,0.,0.8,2.,0.8
1981-08-28 09:03:12.220 ,2,0,0.,0.8,0.,0.8,0.,0.8,5.,0.8
1981-08-28 09:03:13.020 ,2,0,0.,0.8,0.,0.8,0.,0.8,4.,0.8
1981-08-28 09:03:13.820 ,2,0,0.,0.8,0.,0.8,0.,0.8,3.,0.8
1981-08-28 09:03:14.620 ,2,0,0.,0.8,0.,0.8,0.,0.8,6.,0.8
1981-08-28 09:03:15.420 ,2,0,0.,0.8,0.,0.8,0.,0.8,3.,0.8
1981-08-28 09:03:16.220 ,2,0,0.,0.8,0.,0.8,0.,0.8,3.,0.8
1981-08-28 09:03:17.020 ,2,0,0.,0.8,0.,0.8,0.,0.8,3.,0.8
1981-08-28 09:03:17.820 ,2,0,0.,0.8,0.,0.8,0.,0.8,9.,0.8
1981-08-28 09:03:18.620 ,2,0,0.,0.8,0.,0.8,0.,0.8,6.,0.8
1981-08-28 09:03:19.420 ,2,0,0.,0.8,0.,0.8,0.,0.8,7.,0.8
1981-08-28 09:03:20.220 ,2,0,0.,0.8,0.,0.8,0.,0.8,1.,0.8
1981-08-28 09:03:21.020 ,2,0,0.,0.8,0.,0.8,0.,0.8,4.,0.8
1981-08-28 09:03:21.820 ,2,0,0.,0.8,0.,0.8,0.,0.8,4.,0.8
1981-08-28 09:03:22.620 ,2,0,0.,0.8,0.,0.8,0.,0.8,4.,0.8
1981-08-28 09:03:23.420 ,2,0,0.,0.8,0.,0.8,0.,0.8,5.,0.8
1981-08-28 09:03:24.220 ,2,0,0.,0.8,0.,0.8,0.,0.8,3.,0.8
1981-08-28 09:03:25.020 ,2,0,0.,0.8,0.,0.8,0.,0.8,4.,0.8
1981-08-28 09:03:25.820 ,2,0,0.,0.8,0.,0.8,0.,0.8,8.,0.8
1981-08-28 09:03:26.620 ,2,0,0.,0.8,0.,0.8,0.,0.8,5.,0.8
1981-08-28 09:03:27.420 ,2,0,0.,0.8,0.,0.8,0.,0.8,4.,0.8
1981-08-28 09:03:28.220 ,2,0,0.,0.8,0.,0.8,0.,0.8,4.,0.8
1981-08-28 09:03:29.020 ,2,0,0.,0.8,0.,0.8,0.,0.8,4.,0.8
1981-08-28 09:03:29.820 ,2,0,0.,0.8,0.,0.8,0.,0.8,3.,0.8
1981-08-28 09:03:30.620 ,2,0,0.,0.8,0.,0.8,0.,0.8,1.,0.8
1981-08-28 09:03:31.420 ,2,0,0.,0.8,0.,0.8,0.,0.8,2.,0.8
1981-08-28 09:03:32.220 ,2,0,0.,0.8,0.,0.8,0.,0.8,4.,0.8
1981-08-28 09:03:33.020 ,2,0,0.,0.8,0.,0.8,0.,0.8,2.,0.8
1981-08-28 09:03:33.820 ,2,0,0.,0.8,0.,0.8,0.,0.8,4.,0.8
1981-08-28 09:03:34.620 ,2,0,0.,0.8,0.,0.8,0.,0.8,4.,0.8
1981-08-28 09:03:35.420 ,3,0,0.,0.8,0.,0.8,0.,0.8,5.,0.8
1981-08-28 09:03:36.220 ,3,0,0.,0.8,0.,0.8,0.,0.8,5.,0.8
1981-08-28 09:03:37.020 ,3,0,0.,0.8,0.,0.8,0.,0.8,5.,0.8
1981-08-28 09:03:37.820 ,3,0,0.,0.8,0.,0.8,0.,0.8,4.,0.8
1981-08-28 09:03:38.620 ,3,0,0.,0.8,0.,0.8,0.,0.8,2.,0.8
1981-08-28 09:03:39.420 ,3,0,0.,0.8,0.,0.8,0.,0.8,5.,0.8
1981-08-28 09:03:40.220 ,3,0,0.,0.8,0.,0.8,0.,0.8,5.,0.8
1981-08-28 09:03:41.020 ,3,0,0.,0.8,0.,0.8,0.,0.8,4.,0.8
1981-08-28 09:03:41.820 ,3,0,0.,0.8,0.,0.8,0.,0.8,6.,0.8
1981-08-28 09:03:42.620 ,3,0,0.,0.8,0.,0.8,0.,0.8,5.,0.8
1981-08-28 09:03:43.420 ,3,0,0.,0.8,0.,0.8,0.,0.8,1.,0.8
1981-08-28 09:03:44.220 ,3,0,0.,0.8,0.,0.8,0.,0.8,4.,0.8
1981-08-28 09:03:45.020 ,3,0,0.,0.8,0.,0.8,0.,0.8,6.,0.8
1981-08-28 09:03:45.820 ,3,0,0.,0.8,0.,0.8,0.,0.8,1.,0.8
1981-08-28 09:03:46.620 ,3,0,0.,0.8,0.,0.8,0.,0.8,2.,0.8
1981-08-28 09:03:47.420 ,3,0,0.,0.8,0.,0.8,0.,0.8,3.,0.8
1981-08-28 09:03:48.220 ,3,0,0.,0.8,0.,0.8,0.,0.8,8.,0.8
1981-08-28 09:03:49.020 ,3,0,0.,0.8,0.,0.8,0.,0.8,5.,0.8
1981-08-28 09:03:49.820 ,3,0,0.,0.8,0.,0.8,0.,0.8,6.,0.8
1981-08-28 09:03:50.620 ,3,0,0.,0.8,0.,0.8,0.,0.8,3.,0.8
1981-08-28 09:03:51.420 ,3,0,0.,0.8,0.,0.8,0.,0.8,2.,0.8
1981-08-28 09:03:52.220 ,3,0,0.,0.8,0.,0.8,0.,0.8,2.,0.8
1981-08-28 09:03:53.020 ,3,0,0.,0.8,0.,0.8,0.,0.8,2.,0.8
1981-08-28 09:03:53.820 ,3,0,0.,0.8,0.,0.8,0.,0.8,2.,0.8
1981-08-28 09:03:54.620 ,3,0,0.,0.8,0.,0.8,0.,0.8,3.,0.8
1981-08-28 09:03:55.420 ,3,0,0.,0.8,0.,0.8,0.,0.8,5.,0.8
1981-08-28 09:03:56.220 ,3,0,0.,0.8,0.,0.8,0.,0.8,3.,0.8
1981-08-28 09:03:57.020 ,3,0,0.,0.8,0.,0.8,0.,0.8,1.,0.8
1981-08-28 09:03:57.820 ,3,0,0.,0.8,0.,0.8,0.,0.8,7.,0.8
1981-08-28 09:03:58.620 ,3,0,0.,0.8,0.,0.8,0.,0.8,4.,0.8
1981-08-28 09:03:59.420 ,4,0,0.,0.8,0.,0.8,0.,0.8,3.,0.8
1981-08-28 09:04:00.220 ,4,0,0.,0.8,0.,0.8,0.,0.8,1.,0.8
1981-08-28 09:04:01.020 ,4,0,0.,0.8,0.,0.8,0.,0.8,4.,0.8
1981-08-28 09:04:01.820 ,4,0,0.,0.8,0.,0.8,0.,0.8,1.,0.8
1981-08-28 09:04:02.620 ,4,0,0.,0.8,0.,0.8,0.,0.8,3.,0.8
1981-08-28 09:04:03.420 ,4,0,0.,0.8,0.,0.8,0.,0.8,1.,0.8
1981-08-28 09:04:04.220 ,4,0,0.,0.8,0.,0.8,0.,0.8,7.,0.8
1981-08-28 09:04:05.020 ,4,0,0.,0.8,0.,0.8,0.,0.8,2.,0.8
1981-08-28 09:04:05.820 ,4,0,0.,0.8,0.,0.8,0.,0.8,8.,0.8
1981-08-28 09:04:06.620 ,4,0,0.,0.8,0.,0.8,0.,0.8,3.,0.8
1981-08-28 09:04:07.420 ,4,0,0.,0.8,0.,0.8,0.,0.8,6.,0.8
1981-08-28 09:04:08.220 ,4,0,0.,0.8,0.,0.8,0.,0.8,4.,0.8
1981-08-28 09:04:09.020 ,4,0,0.,0.8,0.,0.8,0.,0.8,2.,0.8
1981-08-28 09:04:09.820 ,4,0,0.,0.8,0.,0.8,0.,0.8,4.,0.8
1981-08-28 09:04:10.620 ,4,0,0.,0.8,0.,0.8,0.,0.8,2.,0.8
1981-08-28 09:04:11.420 ,4,0,0.,0.8,0.,0.8,0.,0.8,4.,0.8
1981-08-28 09:04:12.220 ,4,0,0.,0.8,0.,0.8,0.,0.8,3.,0.8
1981-08-28 09:04:13.020 ,4,0,0.,0.8,0.,0.8,0.,0.8,1.,0.8
1981-08-28 09:04:13.820 ,4,0,0.,0.8,0.,0.8,0.,0.8,5.,0.8
1981-08-28 09:04:14.620 ,4,0,0.,0.8,0.,0.8,0.,0.8,5.,0.8
1981-08-28 09:04:15.420 ,4,0,0.,0.8,0.,0.8,0.,0.8,1.,0.8
1981-08-28 09:04:16.220 ,4,0,0.,0.8,0.,0.8,0.,0.8,2.,0.8
1981-08-28 09:04:17.020 ,4,0,0.,0.8,0.,0.8,0.,0.8,3.,0.8
1981-08-28 09:04:17.820 ,4,0,0.,0.8,0.,0.8,0.,0.8,4.,0.8
1981-08-28 09:04:18.620 ,4,0,0.,0.8,0.,0.8,0.,0.8,2.,0.8
1981-08-28 09:04:19.420 ,4,0,0.,0.8,0.,0.8,0.,0.8,3.,0.8
1981-08-28 09:04:20.220 ,4,0,0.,0.8,0.,0.8,0.,0.8,5.,0.8
1981-08-28 09:04:21.020 ,4,0,0.,0.8,0.,0.8,0.,0.8,2.,0.8
1981-08-28 09:04:21.820 ,4,0,0.,0.8,0.,0.8,0.,0.8,1.,0.8
1981-08-28 09:04:22.620 ,4,0,0.,0.8,0.,0.8,0.,0.8,2.,0.8
1981-08-28 09:04:23.420 ,5,0,0.,0.8,0.,0.8,0.,0.8,2.,0.8
1981-08-28 09:04:24.220 ,5,0,0.,0.8,0.,0.8,0.,0.8,4.,0.8
1981-08-28 09:04:25.020 ,5,0,0.,0.8,0.,0.8,0.,0.8,3.,0.8
1981-08-28 09:04:25.820 ,5,0,0.,0.8,0.,0.8,0.,0.8,2.,0.8
1981-08-28 09:04:26.620 ,5,0,0.,0.8,0.,0.8,0.,0.8,2.,0.8
1981-08-28 09:04:27.420 ,5,0,0.,0.8,0.,0.8,0.,0.8,5.,0.8
1981-08-28 09:04:28.220 ,5,0,0.,0.8,0.,0.8,0.,0.8,0.,0.8
1981-08-28 09:04:29.020 ,5,0,0.,0.8,0.,0.8,0.,0.8,4.,0.8
1981-08-28 09:04:29.820 ,5,0,0.,0.8,0.,0.8,0.,0.8,5.,0.8
1981-08-28 09:04:30.620 ,5,0,0.,0.8,0.,0.8,0.,0.8,1.,0.8
1981-08-28 09:04:31.420 ,5,0,0.,0.8,0.,0.8,0.,0.8,7.,0.8
1981-08-28 09:04:32.220 ,5,0,0.,0.8,0.,0.8,0.,0.8,2.,0.8
1981-08-28 09:04:33.020 ,5,0,0.,0.8,0.,0.8,0.,0.8,3.,0.8
1981-08-28 09:04:33.820 ,5,0,0.,0.8,0.,0.8,0.,0.8,2.,0.8
1981-08-28 09:04:34.620 ,5,0,0.,0.8,0.,0.8,0.,0.8,6.,0.8
1981-08-28 09:04:35.420 ,5,0,0.,0.8,0.,0.8,0.,0.8,5.,0.8
1981-08-28 09:04:36.220 ,5,0,0.,0.8,0.,0.8,0.,0.8,2.,0.8
1981-08-28 09:04:37.020 ,5,0,0.,0.8,0.,0.8,0.,0.8,4.,0.8
1981-08-28 09:04:37.820 ,5,0,0.,0.8,0.,0.8,0.,0.8,6.,0.8
1981-08-28 09:04:38.620 ,5,0,0.,0.8,0.,0.8,0.,0.8,3.,0.8
1981-08-28 09:04:39.420 ,5,0,0.,0.8,0.,0.8,0.,0.8,4.,0.8
1981-08-28 09:04:40.220 ,5,0,0.,0.8,0.,0.8,0.,0.8,4.,0.8
1981-08-28 09:04:41.020 ,5,0,0.,0.8,0.,0.8,0.,0.8,8.,0.8
1981-08-28 09:04:41.820 ,5,0,0.,0.8,0.,0.8,0.,0.8,1.,0.8
1981-08-28 09:04:42.620 ,5,0,0.,0.8,0.,0.8,0.,0.8,2.,0.8
1981-08-28 09:04:43.420 ,5,0,0.,0.8,0.,0.8,0.,0.8,4.,0.8
1981-08-28 09:04:44.220 ,5,0,0.,0.8,0.,0.8,0.,0.8,1.,0.8
1981-08-28 09:04:45.020 ,5,0,0.,0.8,0.,0.8,0.,0.8,2.,0.8
1981-08-28 09:04:45.820 ,5,0,0.,0.8,0.,0.8,0.,0.8,4.,0.8
1981-08-28 09:04:46.620 ,5,0,0.,0.8,0.,0.8,0.,0.8,3.,0.8
1981-08-28 09:04:47.420 ,6,0,0.,0.8,0.,0.8,0.,0.8,1.,0.8
1981-08-28 09:04:48.220 ,6,0,0.,0.8,0.,0.8,0.,0.8,1.,0.8
1981-08-28 09:04:49.020 ,6,0,0.,0.8,0.,0.8,0.,0.8,4.,0.8
1981-08-28 09:04:49.820 ,6,0,0.,0.8,0.,0.8,0.,0.8,2.,0.8
1981-08-28 09:04:50.620 ,6,0,0.,0.8,0.,0.8,0.,0.8,2.,0.8
1981-08-28 09:04:51.420 ,6,0,0.,0.8,0.,0.8,0.,0.8,3.,0.8
1981-08-28 09:04:52.220 ,6,0,0.,0.8,0.,0.8,0.,0.8,5.,0.8
1981-08-28 09:04:53.020 ,6,0,0.,0.8,0.,0.8,0.,0.8,7.,0.8
1981-08-28 09:04:53.820 ,6,0,0.,0.8,0.,0.8,0.,0.8,10.,0.8
1981-08-28 09:04:54.620 ,6,0,0.,0.8,0.,0.8,0.,0.8,0.,0.8
1981-08-28 09:04:55.420 ,6,0,0.,0.8,0.,0.8,0.,0.8,2.,0.8
1981-08-28 09:04:56.220 ,6,0,0.,0.8,0.,0.8,0.,0.8,3.,0.8
1981-08-28 09:04:57.020 ,6,0,0.,0.8,0.,0.8,0.,0.8,3.,0.8
1981-08-28 09:04:57.820 ,6,0,0.,0.8,0.,0.8,0.,0.8,6.,0.8
1981-08-28 09:04:58.620 ,6,0,0.,0.8,0.,0.8,0.,0.8,6.,0.8
1981-08-28 09:04:59.420 ,6,0,0.,0.8,0.,0.8,0.,0.8,4.,0.8
1981-08-28 09:05:00.220 ,6,0,0.,0.8,0.,0.8,0.,0.8,2.,0.8
1981-08-28 09:05:01.020 ,6,0,0.,0.8,0.,0.8,0.,0.8,5.,0.8
1981-08-28 09:05:01.820 ,6,0,0.,0.8,0.,0.8,0.,0.8,7.,0.8
1981-08-28 09:05:02.620 ,6,0,0.,0.8,0.,0.8,0.,0.8,2.,0.8
1981-08-28 09:05:03.420 ,6,0,0.,0.8,0.,0.8,0.,0.8,5.,0.8
1981-08-28 09:05:04.220 ,6,0,0.,0.8,0.,0.8,0.,0.8,1.,0.8
1981-08-28 09:05:05.020 ,6,0,0.,0.8,0.,0.8,0.,0.8,3.,0.8
1981-08-28 09:05:05.820 ,6,0,0.,0.8,0.,0.8,0.,0.8,1.,0.8
1981-08-28 09:05:06.620 ,6,0,0.,0.8,0.,0.8,0.,0.8,4.,0.8
1981-08-28 09:05:07.420 ,6,0,0.,0.8,0.,0.8,0.,0.8,3.,0.8
1981-08-28 09:05:08.220 ,6,0,0.,0.8,0.,0.8,0.,0.8,1.,0.8
1981-08-28 09:05:09.020 ,6,0,0.,0.8,0.,0.8,0.,0.8,1.,0.8
1981-08-28 09:05:09.820 ,6,0,0.,0.8,0.,0.8,0.,0.8,0.,0.8
1981-08-28 09:05:10.620 ,6,0,0.,0.8,0.,0.8,0.,0.8,6.,0.8
1981-08-28 09:05:11.420 ,7,0,0.,0.8,0.,0.8,0.,0.8,5.,0.8
1981-08-28 09:05:12.220 ,7,0,0.,0.8,0.,0.8,0.,0.8,3.,0.8
1981-08-28 09:05:13.020 ,7,0,0.,0.8,0.,0.8,0.,0.8,5.,0.8
1981-08-28 09:05:13.820 ,7,0,0.,0.8,0.,0.8,0.,0.8,4.,0.8
1981-08-28 09:05:14.620 ,7,0,0.,0.8,0.,0.8,0.,0.8,2.,0.8
1981-08-28 09:05:15.420 ,7,0,0.,0.8,0.,0.8,0.,0.8,2.,0.8
1981-08-28 09:05:16.220 ,7,0,0.,0.8,0.,0.8,0.,0.8,4.,0.8
1981-08-28 09:05:17.020 ,7,0,0.,0.8,0.,0.8,0.,0.8,1.,0.8
1981-08-28 09:05:17.820 ,7,0,0.,0.8,0.,0.8,0.,0.8,6.,0.8
1981-08-28 09:05:18.620 ,7,0,0.,0.8,0.,0.8,0.,0.8,9.,0.8
1981-08-28 09:05:19.420 ,7,0,0.,0.8,0.,0.8,0.,0.8,5.,0.8
1981-08-28 09:05:20.220 ,7,0,0.,0.8,0.,0.8,0.,0.8,3.,0.8
1981-08-28 09:05:21.020 ,7,0,0.,0.8,0.,0.8,0.,0.8,2.,0.8
1981-08-28 09:05:21.820 ,7,0,0.,0.8,0.,0.8,0.,0.8,3.,0.8
1981-08-28 09:05:22.620 ,7,0,0.,0.8,0.,0.8,0.,0.8,3.,0.8
1981-08-28 09:05:23.420 ,7,0,0.,0.8,0.,0.8,0.,0.8,5.,0.8
1981-08-28 09:05:24.220 ,7,0,0.,0.8,0.,0.8,0.,0.8,1.,0.8
1981-08-28 09:05:25.020 ,7,0,0.,0.8,0.,0.8,0.,0.8,2.,0.8
1981-08-28 09:05:25.820 ,7,0,0.,0.8,0.,0.8,0.,0.8,3.,0.8
1981-08-28 09:05:26.620 ,7,0,0.,0.8,0.,0.8,0.,0.8,2.,0.8
1981-08-28 09:05:27.420 ,7,0,0.,0.8,0.,0.8,0.,0.8,1.,0.8
1981-08-28 09:05:28.220 ,7,0,0.,0.8,0.,0.8,0.,0.8,4.,0.8
1981-08-28 09:05:29.020 ,7,0,0.,0.8,0.,0.8,0.,0.8,2.,0.8
1981-08-28 09:05:29.820 ,7,0,0.,0.8,0.,0.8,0.,0.8,7.,0.8
1981-08-28 09:05:30.620 ,7,0,0.,0.8,0.,0.8,0.,0.8,5.,0.8
1981-08-28 09:05:31.420 ,7,0,0.,0.8,0.,0.8,0.,0.8,8.,0.8
1981-08-28 09:05:32.220 ,7,0,0.,0.8,0.,0.8,0.,0.8,4.,0.8
1981-08-28 09:05:33.020 ,7,0,0.,0.8,0.,0.8,0.,0.8,7.,0.8
1981-08-28 09:05:33.820 ,7,0,0.,0.8,0.,0.8,0.,0.8,4.,0.8
1981-08-28 09:05:34.620 ,7,0,0.,0.8,0.,0.8,0.,0.8,0.,0.8
1981-08-28 09:05:35.420 ,7,0,0.,0.8,0.,0.8,0.,0.8,1.,0.8
1981-08-28 09:05:36.220 ,7,0,0.,0.8,0.,0.8,0.,0.8,1.,0.8
1981-08-28 09:05:37.020 ,7,0,0.,0.8,0.,0.8,0.,0.8,8.,0.8
1981-08-28 09:05:37.820 ,7,0,0.,0.8,0.,0.8,0.,0.8,5.,0.8
1981-08-28 09:05:38.620 ,7,0,0.,0.8,0.,0.8,0.,0.8,6.,0.8
1981-08-28 09:05:39.420 ,7,0,0.,0.8,0.,0.8,0.,0.8,1.,0.8
1981-08-28 09:05:40.220 ,7,0,0.,0.8,0.,0.8,0.,0.8,3.,0.8
1981-08-28 09:05:41.020 ,7,0,0.,0.8,0.,0.8,0.,0.8,4.,0.8
1981-08-28 09:05:41.820 ,7,0,0.,0.8,0.,0.8,0.,0.8,3.,0.8
1981-08-28 09:05:42.620 ,7,0,0.,0.8,0.,0.8,0.,0.8,5.,0.8
1981-08-28 09:05:43.420 ,7,0,0.,0.8,0.,0.8,0.,0.8,1.,0.8
1981-08-28 09:05:44.220 ,7,0,0.,0.8,0.,0.8,0.,0.8,7.,0.8
1981-08-28 09:05:45.020 ,7,0,0.,0.8,0.,0.8,0.,0.8,3.,0.8
1981-08-28 09:05:45.820 ,7,0,0.,0.8,0.,0.8,0.,0.8,4.,0.8
1981-08-28 09:05:46.620 ,7,0,0.,0.8,0.,0.8,0.,0.8,3.,0.8
1981-08-28 09:05:47.420 ,7,0,0.,0.8,0.,0.8,0.,0.8,2.,0.8
1981-08-28 09:05:48.220 ,7,0,0.,0.8,0.,0.8,0.,0.8,6.,0.8
1981-08-28 09:05:49.020 ,7,0,0.,0.8,0.,0.8,0.,0.8,4.,0.8
1981-08-28 09:05:49.820 ,7,0,0.,0.8,0.,0.8,0.,0.8,4.,0.8
1981-08-28 09:05:50.620 ,7,0,0.,0.8,0.,0.8,0.,0.8,4.,0.8
1981-08-28 09:05:51.420 ,7,0,0.,0.8,0.,0.8,0.,0.8,6.,0.8
1981-08-28 09:05:52.220 ,7,0,0.,0.8,0.,0.8,0.,0.8,3.,0.8